Regional Weather Roundup
Issued by NWS Upton, NY

Current Version | Previous Version | Text Only | Print | Product List | Glossary Off
Versions: 1 2 3 4 5 6 7 8 9 10 11 12 13 14 15 16 17 18 19 20 21 22 23 24 25 26 27 28 29 30 31 32 33 34 35 36 37 38 39 40 41 42 43 44 45 46 47 48 49 50
647 ASUS41 KOKX 171609 RWROKX Regional Weather Roundup National Weather Service New York NY 1100 AM EST WED JAN 17 2018 Note: "FAIR" indicates few or no clouds below 12,000 feet with no significant weather and/or obstructions to visibility. NYZ071-072-176-178-NJZ106-104-171700- New York City Metro Area CITY SKY/WX TMP DP RH WIND PRES REMARKS Central Park LGT SNOW 33 31 92 NW6 30.27F VSB 3/4 WCI 28 Bronx Bot Gard N/A 32 32 100 CALM 30.27F Bronx Lehman C N/A 32 32 100 NW6 N/A WCI 26 LaGuardia Arpt LGT SNOW 34 32 92 NW8 30.25F VSB 1 WCI 27 Queens College N/A 34 32 93 NW8 N/A WCI 27 Kennedy Intl LGT SNOW 34 33 96 NW9 30.26F FOG WCI 27 Breezy Point N/A 32 N/A N/A NW10 N/A WCI 24 Brooklyn Coll N/A 34 32 93 NW10 N/A WCI 26 Staten Island N/A 32 32 100 NW7 N/A WCI 26 Newark/Liberty LGT SNOW 33 31 92 NW9 30.27F VSB 3/4 WCI 25 Teterboro LGT SNOW 33 31 92 NW6G17 30.26S VSB 3/4 WCI 28 $$ NYZ177-179-078>081-171700- Long Island New York CITY SKY/WX TMP DP RH WIND PRES REMARKS Jones Beach N/A 34 N/A N/A NW14 N/A WCI 24 Wantagh N/A 34 34 100 NW8 N/A WCI 27 Matinecock Pt N/A 34 N/A N/A NW3 N/A Farmingdale MIX PCPN 36 35 96 NW8 30.24S FOG WCI 30 MacArthur/ISP LGT RAIN 39 38 96 N3 30.22F FOG Shirley CLOUDY 39 38 96 CALM 30.22F Mt Sinai Harb N/A N/A N/A N/A NE3 N/A Westhampton CLOUDY 38 36 92 NE5 30.23F WCI 34 East Hampton DRIZZLE 36 35 96 E6 30.21F WCI 31 Southold N/A 36 34 93 E7 N/A WCI 30 Montauk N/A 39 37 92 NE8 30.22F WCI 33 $$ NYZ052-065-067-171700- Hudson Valley CITY SKY/WX TMP DP RH WIND PRES REMARKS White Plains LGT SNOW 32 31 96 NW7 30.22F VSB 3/4 WCI 26 Larchmont Harb N/A 32 N/A N/A W7 N/A WCI 26 Croton On Huds N/A 32 N/A N/A NW7 N/A WCI 26 Somers N/A 32 32 100 NW2 N/A Brewster N/A 32 32 100 NW2 N/A Newburgh LGT SNOW 30 28 93 CALM 30.26F FOG Montgomery LGT SNOW 31 29 92 CALM 30.24F VSB 3/4 Otisville N/A 32 28 86 CALM N/A Warwick N/A 32 30 93 W5 N/A WCI 27 Suffern N/A 32 30 93 NW2 N/A Poughkeepsie LGT SNOW 30 27 88 CALM 30.26F FOG Albany LGT SNOW 27 22 81 NW10 30.30S VSB 1 WCI 17 $$ NJZ001-105-106-008-010-013-015-019>022-104-171700- New Jersey CITY SKY/WX TMP DP RH WIND PRES REMARKS Newark/Liberty LGT SNOW 33 31 92 NW9 30.27F VSB 3/4 WCI 25 Teterboro LGT SNOW 33 31 92 NW6G17 30.26S VSB 3/4 WCI 28 Caldwell LGT SNOW 32 31 96 NW3 30.27F VSB 3/4 Somerville LGT SNOW 32 31 96 NW6 30.27F FOG WCI 26 Linden LGT SNOW 32 31 95 CALM 30.28F Perth Amboy N/A 32 N/A N/A W9 N/A WCI 24 Sussex LGT SNOW 31 29 92 VRB3 30.27S VSB 1 Andover N/A 30 27 88 VRB3 30.26F Trenton LGT SNOW 30 27 88 W10 30.29S FOG WCI 21 Millville LGT SNOW 29 29 100 NW15G21 30.32R VSB 3/4 WCI 18 Atlantic City LGT SNOW 33 32 96 NW16 30.28F FOG WCI 23 Wrightstown LGT SNOW 31 29 94 NW12 30.26F FOG WCI 22 Toms River LGT SNOW 33 32 96 NW9 30.28S FOG WCI 25 Belmar LGT SNOW 33 32 96 NW10 30.27S FOG WCI 25 $$ PAZ047>061-062-071-171700- Eastern Pennsylvania CITY SKY/WX TMP DP RH WIND PRES REMARKS Philadelphia CLOUDY 29 23 78 NW10 30.34F WCI 20 Allentown LGT SNOW 25 18 74 NW10 30.32S WCI 15 Scranton LGT SNOW 17 11 77 NW10G21 30.33F WCI 5 $$ CTZ002-004>006-009-010-012-RIZ004-006-007-MAZ004-011-015-171700- Southern New England In CT CITY SKY/WX TMP DP RH WIND PRES REMARKS Bradley Intl LGT SNOW 32 30 92 N6 30.24F FOG WCI 26 Hartford LGT SNOW 33 31 92 N5 30.24F FOG WCI 29 Danbury LGT SNOW 33 32 96 CALM 30.24F VSB 3/4 Wtrbury/Oxford LGT SNOW 32 30 93 VRB3 30.21F VSB 1 Norwalk Harbor N/A 32 N/A N/A NW5 N/A WCI 27 Bridgeport LGT RAIN 35 33 92 NW5 30.24F FOG WCI 31 Meriden LGT SNOW 32 30 92 NW6 30.24F FOG WCI 26 New Haven CLOUDY 34 32 92 N6 30.23F FOG WCI 29 Chester CLOUDY 34 34 100 NE3 30.21F Groton LGT RAIN 36 34 92 NE6 30.22F WCI 31 Willimantic LGT SNOW 34 32 92 CALM 30.23F FOG In RI CITY SKY/WX TMP DP RH WIND PRES REMARKS Providence LGT SNOW 34 33 96 N6 30.23F VSB 1 WCI 29 Block Island LGT RAIN 36 35 96 NE12G17 30.21F WCI 28 Westerly LGT RAIN 36 35 96 NE6 30.22F FOG WCI 31 In MA CITY SKY/WX TMP DP RH WIND PRES REMARKS Boston LGT SNOW 33 33 100 NE5 30.25F FOG WCI 29 Worcester LGT SNOW 29 27 92 NE6 30.19F FOG WCI 23 Westfield LGT SNOW 30 30 100 N7 30.24F VSB 1 WCI 23 Provincetown LGT RAIN 37 35 92 NE9 30.24F WCI 30 Nantucket CLOUDY 41 41 100 NE14 30.17F FOG $$ ANZ330-335-338-340-345-350-353-355-171700- Coastal Marine Observations STATION/POSITION TIME SKY/WX TEMP WIND PRES VSBY WAVE AIR SEA DIR/SP/G HT/PER (UTC) (F) (DEG/KT/KT) (MB) (MI) (FT/S) NY Harb Entrance 1550 35 42 310/ 16/ 17 1023.8 5/11 20 S Fire Island 1550 42 41 320/ 4/ 6 1022.9 6/10 15 E Barnegat Li 1530 43 N/A 6/ 8 Hudson Canyon 1450 46 51 50/ 12/ 12 1022.5 6/ 7 Kings Point 1542 32 32 10/ 5/ 7 1025.5 Execution Rocks NOT AVBL Western LI Sound NOT AVBL Central LI Sound 1545 36 90/ 12/ 12 N/A 2 Robbins Reef 1542 32 320/ 11/ 16 1025.5 $$ >>>>>>>>>>>>>>>>>>>>>>>>>>>> KEY <<<<<<<<<<<<<<<<<<<<<<<<<<< > < > SKY/WX - Sky Condition/Present Weather < > TMP - Temperature in Fahrenheit < > DP - Dew Point in Fahrenheit < > RH - Relative Humidity in Percent < > WIND - Direction (from) and Speed in MPH < > PRES - Mean Sea Level Pressure (inches of Hg) < > WCI - Wind Chill Index < > VSB - Visibility in Miles < > HX - Heat Index < > TC - Temperature in Celsius < > VRB - Varibale Wind Direction < > < >>>>>>>>>>>>>>>>>>>>>>>>>>>> KEY <<<<<<<<<<<<<<<<<<<<<<<<<<<

USA.gov is the U.S. government's official web portal to all federal, state and local government web resources and services.